Rugby, ND

9:32 PM CST on February 21, 2018 (GMT -0600)
Rugby Municipal

Weather History for KRUG - January, 2014

Change the Weather History Date:

Wednesday, January 8, 2014

  Actual Average Record
Temperature  
Mean Temperature -8 °F -  
Max Temperature 8 °F 12 °F 42 °F (1958)
Min Temperature -23 °F -8 °F -30 °F (1977)
Degree Days  
Heating Degree Days 72    
Moisture  
Dew Point -16 °F    
Average Humidity 79    
Maximum Humidity 92    
Minimum Humidity 69    
Precipitation  
Precipitation 0.00 in - - ()
Sea Level Pressure  
Sea Level Pressure 30.18 in    
Wind  
Wind Speed 7 mph (South)    
Max Wind Speed 21 mph    
Max Gust Speed 26 mph    
Visibility 10 miles    
Events      
Averages and records for this station are not official NWS values.
T = Trace of Precipitation, MM = Missing Value Source: NWS Daily Summary

Daily Weather History Graph

Daily Weather History Graph

Search for Another Location

Airport or City:

Trip Planner

Search our weather history database for the weather conditions in past years. The results will help you decide how hot, cold, wet, or windy it might be!

Date:

Astronomy

Jan. 08, 2014 Rise Set
Actual Time 8:30 AM CST 5:03 PM CST
Civil Twilight 7:54 AM CST 5:39 PM CST
Nautical Twilight 7:14 AM CST 6:19 PM CST
Astronomical Twilight 6:36 AM CST 6:57 PM CST
Moon 12:12 PM CST (1/8) 1:20 AM CST (1/8)
Length of Visible Light 9h 45m
Length of Day
8h 33m
First Quarter, 56% of the Moon is Illuminated
Jan 8
First Quarter
Jan 15
Full
Jan 23
Last Quarter
Jan 30
New
Feb 6
First Quarter

Hourly Weather History & Observations

Time (CST) Temp. Windchill Dew Point Humidity Pressure Visibility Wind Dir Wind Speed Gust Speed Precip Events Conditions
12:15 AM -20.2 °F -33.5 °F -25.6 °F 76% 30.24 in 10.0 mi West 4.6 mph - N/A   Clear
12:35 AM -20.2 °F -35.5 °F -25.6 °F 76% 30.24 in 10.0 mi West 5.8 mph - N/A   Clear
12:55 AM -20.2 °F -37.3 °F -25.6 °F 76% 30.24 in 10.0 mi West 6.9 mph - N/A   Clear
1:15 AM -20.2 °F -37.3 °F -25.6 °F 76% 30.24 in 10.0 mi WNW 6.9 mph - N/A   Clear
1:35 AM -22.0 °F -37.7 °F -27.4 °F 76% 30.24 in 10.0 mi West 5.8 mph - N/A   Clear
1:55 AM -22.0 °F -37.7 °F -27.4 °F 76% 30.25 in 10.0 mi West 5.8 mph - N/A   Clear
2:15 AM -22.0 °F -37.7 °F -27.4 °F 76% 30.25 in 10.0 mi West 5.8 mph - N/A   Clear
2:35 AM -22.0 °F -37.7 °F -27.4 °F 76% 30.26 in 10.0 mi West 5.8 mph - N/A   Clear
2:55 AM -22.0 °F -37.7 °F -27.4 °F 76% 30.26 in 10.0 mi West 5.8 mph - N/A   Clear
3:15 AM -22.0 °F -37.7 °F -27.4 °F 76% 30.27 in 10.0 mi West 5.8 mph - N/A   Clear
3:35 AM -22.0 °F -37.7 °F -27.4 °F 76% 30.27 in 10.0 mi West 5.8 mph - N/A   Clear
3:55 AM -22.0 °F -39.4 °F -27.4 °F 76% 30.26 in 10.0 mi WNW 6.9 mph - N/A   Clear
4:15 AM -20.2 °F -35.5 °F -25.6 °F 76% 30.26 in 10.0 mi WNW 5.8 mph - N/A   Clear
5:15 AM -23.8 °F -45.8 °F -29.2 °F 76% 30.26 in 10.0 mi West 10.4 mph - N/A   Clear
5:35 AM -22.0 °F -41.0 °F -27.4 °F 76% 30.27 in 10.0 mi West 8.1 mph - N/A   Clear
5:55 AM -23.8 °F -37.7 °F -29.2 °F 76% 30.27 in 10.0 mi West 4.6 mph - N/A   Clear
6:15 AM -22.0 °F -37.7 °F -29.2 °F 69% 30.28 in 10.0 mi SW 5.8 mph - N/A   Clear
6:35 AM -22.0 °F -39.4 °F -27.4 °F 76% 30.28 in 10.0 mi SSW 6.9 mph - N/A   Clear
6:55 AM -22.0 °F -39.4 °F -27.4 °F 76% 30.28 in 10.0 mi WSW 6.9 mph - N/A   Clear
7:15 AM -22.0 °F -39.4 °F -27.4 °F 76% 30.28 in 10.0 mi SW 6.9 mph - N/A   Clear
7:35 AM -23.8 °F -43.2 °F -29.2 °F 76% 30.28 in 10.0 mi SW 8.1 mph - N/A   Clear
7:55 AM -22.0 °F -39.4 °F -29.2 °F 69% 30.28 in 10.0 mi SW 6.9 mph - N/A   Unknown
8:15 AM -22.0 °F -37.7 °F -29.2 °F 69% 30.28 in 10.0 mi SW 5.8 mph - N/A   Unknown
8:35 AM -22.0 °F -37.7 °F -27.4 °F 76% 30.29 in 10.0 mi SW 5.8 mph - N/A   Clear
8:55 AM -22.0 °F -37.7 °F -27.4 °F 76% 30.30 in 10.0 mi SSW 5.8 mph - N/A   Clear
9:15 AM -22.0 °F -39.4 °F -27.4 °F 76% 30.31 in 10.0 mi SSW 6.9 mph - N/A   Clear
9:35 AM -20.2 °F -30.9 °F -27.4 °F 69% 30.31 in 10.0 mi SSW 3.5 mph - N/A   Clear
9:55 AM -20.2 °F - -25.6 °F 76% 30.30 in 10.0 mi Calm Calm - N/A   Clear
10:15 AM -18.4 °F - -22.0 °F 84% 30.30 in 10.0 mi Calm Calm - N/A   Clear
10:35 AM -16.6 °F - -22.0 °F 76% 30.30 in 10.0 mi Calm Calm - N/A   Clear
10:55 AM -16.6 °F - -20.2 °F 84% 30.30 in 10.0 mi Calm Calm - N/A   Clear
11:15 AM -16.6 °F - -20.2 °F 84% 30.29 in 10.0 mi Calm Calm - N/A   Clear
11:35 AM -13.0 °F -22.7 °F -18.4 °F 77% 30.28 in 10.0 mi South 3.5 mph - N/A   Clear
11:55 AM -13.0 °F -25.1 °F -16.6 °F 84% 30.27 in 10.0 mi South 4.6 mph - N/A   Clear
12:15 PM -11.2 °F -23.0 °F -16.6 °F 77% 30.26 in 10.0 mi South 4.6 mph - N/A   Clear
12:35 PM -9.4 °F -20.9 °F -14.8 °F 77% 30.25 in 10.0 mi SSE 4.6 mph - N/A   Clear
12:55 PM -9.4 °F -22.7 °F -13.0 °F 84% 30.24 in 10.0 mi South 5.8 mph - N/A   Clear
1:15 PM -9.4 °F -24.3 °F -13.0 °F 84% 30.23 in 10.0 mi South 6.9 mph - N/A   Clear
1:35 PM -9.4 °F -24.3 °F -13.0 °F 84% 30.22 in 10.0 mi SSE 6.9 mph - N/A   Clear
1:55 PM -7.6 °F -23.4 °F -11.2 °F 84% 30.21 in 10.0 mi SSE 8.1 mph - N/A   Clear
2:15 PM -7.6 °F -23.4 °F -11.2 °F 84% 30.20 in 10.0 mi South 8.1 mph - N/A   Clear
2:35 PM -7.6 °F -24.6 °F -11.2 °F 84% 30.20 in 10.0 mi SSE 9.2 mph - N/A   Clear
2:55 PM -5.8 °F -22.4 °F -9.4 °F 84% 30.19 in 10.0 mi South 9.2 mph - N/A   Clear
3:15 PM -5.8 °F -22.4 °F -9.4 °F 84% 30.19 in 10.0 mi SSE 9.2 mph - N/A   Clear
3:35 PM -5.8 °F -24.4 °F -9.4 °F 84% 30.18 in 10.0 mi SSE 11.5 mph - N/A   Clear
3:55 PM -4.0 °F -20.2 °F -9.4 °F 78% 30.17 in 10.0 mi SE 9.2 mph - N/A   Clear
4:15 PM -4.0 °F -20.2 °F -9.4 °F 78% 30.17 in 10.0 mi SE 9.2 mph - N/A   Clear
4:35 PM -5.8 °F -23.4 °F -11.2 °F 77% 30.15 in 10.0 mi SE 10.4 mph - N/A   Clear
4:55 PM -5.8 °F -23.4 °F -9.4 °F 84% 30.14 in 10.0 mi SE 10.4 mph - N/A   Mostly Cloudy
5:15 PM -4.0 °F -21.2 °F -9.4 °F 78% 30.13 in 10.0 mi SE 10.4 mph - N/A   Overcast
5:35 PM -4.0 °F -23.7 °F -7.6 °F 85% 30.12 in 10.0 mi SE 13.8 mph - N/A   Mostly Cloudy
5:55 PM -4.0 °F -22.1 °F -7.6 °F 85% 30.11 in 10.0 mi SSE 11.5 mph - N/A   Mostly Cloudy
6:15 PM -2.2 °F -20.7 °F -7.6 °F 78% 30.09 in 10.0 mi SE 12.7 mph - N/A   Mostly Cloudy
6:35 PM -2.2 °F -19.9 °F -7.6 °F 78% 30.09 in 10.0 mi SSE 11.5 mph - N/A   Scattered Clouds
6:55 PM -2.2 °F -21.5 °F -7.6 °F 78% 30.08 in 10.0 mi SSE 13.8 mph - N/A   Mostly Cloudy
7:15 PM -2.2 °F -21.5 °F -5.8 °F 85% 30.07 in 10.0 mi SSE 13.8 mph 19.6 mph N/A   Overcast
7:35 PM -0.4 °F -19.9 °F -5.8 °F 78% 30.05 in 10.0 mi SSE 15.0 mph - N/A   Overcast
7:55 PM -0.4 °F -18.4 °F -4.0 °F 85% 30.04 in 10.0 mi SSE 12.7 mph - N/A   Overcast
8:15 PM 1.4 °F -18.8 °F -2.2 °F 85% 30.02 in 10.0 mi SSE 17.3 mph 23.0 mph N/A   Overcast
8:35 PM 1.4 °F -20.5 °F -2.2 °F 85% 30.00 in 10.0 mi SSE 20.7 mph 26.5 mph N/A   Overcast
8:55 PM 3.2 °F -16.5 °F -0.4 °F 85% 29.99 in 10.0 mi SSE 17.3 mph 24.2 mph N/A   Overcast
9:15 PM 3.2 °F -15.9 °F -0.4 °F 85% 29.98 in 10.0 mi SSE 16.1 mph 21.9 mph N/A   Overcast
9:35 PM 5.0 °F -14.7 °F -0.4 °F 78% 29.96 in 10.0 mi SSE 18.4 mph 24.2 mph N/A   Overcast
9:55 PM 5.0 °F -14.2 °F -0.4 °F 78% 29.95 in 10.0 mi SSE 17.3 mph 21.9 mph N/A   Overcast
10:15 PM 5.0 °F -13.0 °F -0.4 °F 78% 29.94 in 10.0 mi SSE 15.0 mph 21.9 mph N/A   Overcast
10:35 PM 6.8 °F -10.0 °F 1.4 °F 79% 29.93 in 10.0 mi SSE 13.8 mph - N/A   Overcast
10:55 PM 6.8 °F -11.3 °F 3.2 °F 85% 29.91 in 10.0 mi South 16.1 mph 23.0 mph N/A   Overcast
11:15 PM 8.6 °F -8.3 °F 5.0 °F 85% 29.90 in 10.0 mi South 15.0 mph - N/A   Overcast
11:35 PM 8.6 °F -7.0 °F 5.0 °F 85% 29.89 in 10.0 mi South 12.7 mph 18.4 mph N/A   Overcast
11:55 PM 8.6 °F -6.3 °F 6.8 °F 92% 29.88 in 10.0 mi South 11.5 mph 18.4 mph N/A   Overcast